Location: Bodest
(46.3000°N, 22.5667°E)
Time: 12:14:16
(UTC+00:00)

Cosmos 1844 Rocket - Visible Passes

Search period start: 29 May 2022 00:00
Search period end: 08 June 2022 00:00
Orbit: 825 x 844 km, 71.0° (Epoch: 29 May)

Date Brightness Start Highest point End Pass type
(mag) Time Alt. Az. Time Alt. Az. Time Alt. Az.
29 May 3.5 19:46:23 10° NNW 19:51:40 41° NE 19:55:36 17° ESE visible
29 May 3.7 21:30:29 10° NW 21:35:28 34° WSW 21:37:16 28° SW visible
30 May 3.6 19:29:10 10° NNW 19:34:23 38° NE 19:38:46 14° ESE visible
30 May 3.6 21:13:09 10° NW 21:18:15 37° WSW 21:20:26 27° SSW visible
31 May 3.7 19:11:58 10° NNW 19:17:05 35° NE 19:21:58 11° ESE visible
31 May 3.5 20:55:50 10° NW 21:01:02 41° WSW 21:03:37 25° SSW visible
01 Jun 3.8 18:54:45 10° NNW 18:59:46 33° NE 19:04:45 10° ESE visible
01 Jun 3.4 20:38:31 10° NW 20:43:48 45° WSW 20:46:51 23° SSW visible
02 Jun 3.3 20:21:13 10° NW 20:26:35 49° WSW 20:30:07 21° S visible
03 Jun 3.2 20:03:55 10° NW 20:09:21 54° WSW 20:13:25 17° S visible
04 Jun 3.1 19:46:38 10° NNW 19:52:07 59° WSW 19:56:45 14° S visible
05 Jun 3.0 19:29:20 10° NNW 19:34:52 64° WSW 19:40:07 11° SSE visible
06 Jun 2.9 19:12:04 10° NNW 19:17:38 70° WSW 19:23:09 10° SSE visible
07 Jun 2.8 18:54:48 10° NNW 19:00:23 77° WSW 19:05:55 10° SSE visible
07 Jun 5.1 20:41:45 10° W 20:43:15 11° W 20:44:47 10° WSW visible
